This is the latest recevied weather packets stored in our database for station/object PY5KT-13. If no packets are shown the sender has not sent any weather packets the latest 10 day(s).
| Time | Temp. | Humidity | Pressure | Rain* | Wind** | Luminosity | Snow |
|---|---|---|---|---|---|---|---|
| 1778074686 | 27.22° C | 59% | 1024.7 hPa | 0 mm | - | 474 W/m² | - |
| 1778074385 | 26.67° C | 58% | 1024.8 hPa | 0 mm | - | 475 W/m² | - |
| 1778074083 | 27.78° C | 58% | 1024.9 hPa | 0 mm | - | 463 W/m² | - |
| 1778073780 | 26.67° C | 63% | 1024.9 hPa | 0 mm | - | 455 W/m² | - |
| 1778073478 | 26.67° C | 64% | 1024.9 hPa | 0 mm | - | 444 W/m² | - |
| 1778073176 | 26.67° C | 65% | 1025 hPa | 0 mm | - | 419 W/m² | - |
| 1778072874 | 27.22° C | 65% | 1025.1 hPa | 0 mm | - | 442 W/m² | - |
| 1778072572 | 26.67° C | 67% | 1025.1 hPa | 0 mm | - | 436 W/m² | - |
| 1778072270 | 25.56° C | 72% | 1025.2 hPa | 0 mm | - | 431 W/m² | - |
| 1778071968 | 26.67° C | 66% | 1025.2 hPa | 0 mm | - | 400 W/m² | - |
| 1778071666 | 26.11° C | 69% | 1025.1 hPa | 0 mm | - | 404 W/m² | - |
| 1778071364 | 25.56° C | 71% | 1025.1 hPa | 0 mm | - | 408 W/m² | - |
| 1778071062 | 25° C | 74% | 1025.1 hPa | 0 mm | - | 399 W/m² | - |
| 1778070759 | 25.56° C | 70% | 1025.1 hPa | 0 mm | - | 389 W/m² | - |
| 1778070457 | 25° C | 72% | 1025 hPa | 0 mm | - | 371 W/m² | - |
| 1778070156 | 24.44° C | 74% | 1025 hPa | 0 mm | - | 370 W/m² | - |
| 1778069854 | 23.89° C | 76% | 1024.9 hPa | 0 mm | - | 357 W/m² | - |
| 1778069552 | 24.44° C | 73% | 1025 hPa | 0 mm | - | 351 W/m² | - |
| 1778069251 | 24.44° C | 72% | 1025 hPa | 0 mm | - | 344 W/m² | - |
| 1778068949 | 22.78° C | 78% | 1025 hPa | 0 mm | - | 309 W/m² | - |
| 1778068647 | 22.22° C | 78% | 1025 hPa | 0 mm | - | 327 W/m² | - |
| 1778068345 | 22.78° C | 79% | 1024.9 hPa | 0 mm | - | 318 W/m² | - |
| 1778068043 | 22.78° C | 76% | 1024.9 hPa | 0 mm | - | 319 W/m² | - |
| 1778067742 | 23.89° C | 73% | 1024.8 hPa | 0 mm | - | 306 W/m² | - |
| 1778067440 | 22.22° C | 80% | 1024.8 hPa | 0 mm | - | 289 W/m² | - |
* Rain latest hour (hover to see other rain measurements)
** Current wind speed in m/s (hover to see current wind gust speed)